This is the latest recevied weather packets stored in our database for station/object SP9UVG-13. If no packets are shown the sender has not sent any weather packets the latest 10 day(s).
| Time | Temp. | Humidity | Pressure | Rain* | Wind** | Luminosity | Snow |
|---|---|---|---|---|---|---|---|
| 1787759083 | 21.67° C | 55% | 1005.7 hPa | 0 mm | - | - | - |
| 1787758002 | 21.67° C | 54% | 1005.6 hPa | 0 mm | - | - | - |
| 1787757462 | 21.67° C | 54% | 1005.6 hPa | 0 mm | - | - | - |
| 1787756921 | 21.67° C | 52% | 1005.7 hPa | 0 mm | - | - | - |
| 1787756380 | 22.22° C | 52% | 1005.6 hPa | 0 mm | - | - | - |
| 1787755840 | 22.22° C | 52% | 1005.6 hPa | 0 mm | - | - | - |
| 1787755299 | 22.22° C | 51% | 1005.7 hPa | 0 mm | - | - | - |
| 1787754759 | 22.22° C | 50% | 1005.7 hPa | 0 mm | - | - | - |
| 1787754218 | 22.78° C | 50% | 1005.9 hPa | 0 mm | - | - | - |
| 1787753678 | 22.78° C | 50% | 1005.8 hPa | 0 mm | - | - | - |
| 1787753137 | 22.78° C | 49% | 1005.8 hPa | 0 mm | - | - | - |
| 1787752597 | 22.78° C | 50% | 1005.8 hPa | 0 mm | - | - | - |
| 1787752056 | 22.78° C | 49% | 1005.7 hPa | 0 mm | - | - | - |
| 1787751516 | 22.78° C | 48% | 1005.7 hPa | 0 mm | - | - | - |
| 1787750975 | 23.33° C | 47% | 1005.5 hPa | 0 mm | - | - | - |
| 1787750435 | 23.33° C | 48% | 1005.7 hPa | 0 mm | - | - | - |
| 1787749894 | 23.33° C | 47% | 1005.7 hPa | 0 mm | - | - | - |
| 1787749354 | 23.89° C | 47% | 1005.9 hPa | 0 mm | - | - | - |
| 1787748814 | 23.33° C | 49% | 1006 hPa | 0 mm | - | - | - |
| 1787748273 | 22.78° C | 49% | 1005.8 hPa | 0 mm | - | - | - |
| 1787747732 | 22.78° C | 48% | 1005.8 hPa | 0 mm | - | - | - |
| 1787747192 | 23.33° C | 47% | 1005.8 hPa | 0 mm | - | - | - |
| 1787746651 | 23.89° C | 46% | 1005.8 hPa | 0 mm | - | - | - |
| 1787746111 | 24.44° C | 46% | 1006 hPa | 0 mm | - | - | - |
| 1787745570 | 25° C | 44% | 1006 hPa | 0 mm | - | - | - |
* Rain latest hour (hover to see other rain measurements)
** Current wind speed in m/s (hover to see current wind gust speed)